GEFSSE_500_meanwind_000.txt.gz
Wind_Speed
11 12 11 10 8 7 6 7 7 6 5 5 6 7 8 7 7 7 8 9 9 11 13 15 15 15 16 16 17 18 18 18 19 20 21 21 22 23 27 30 32 33 34
10 9 9 8 7 7 6 6 8 8 7 7 8 8 8 8 8 8 8 9 10 12 14 16 17 18 19 20 20 21 21 21 22 23 24 24 24 26 29 31 33 34 34
10 7 8 7 8 7 6 6 8 9 8 8 9 9 9 7 7 8 8 10 11 12 14 16 18 20 22 23 24 26 26 26 25 24 25 26 27 28 30 31 32 34 33
10 8 8 8 8 7 5 5 7 8 9 8 9 10 10 9 8 9 9 11 12 12 13 16 18 20 22 25 27 29 31 30 27 27 26 27 27 29 30 32 33 34 33
12 8 9 8 8 7 6 6 8 10 10 9 10 11 12 12 11 10 11 12 13 13 15 16 19 21 22 23 24 26 27 26 25 25 26 27 28 30 31 31 32 33 32
13 10 9 9 8 7 7 7 10 12 12 12 12 11 11 13 13 13 13 14 13 13 14 16 19 21 22 22 21 21 21 21 21 22 23 24 26 27 28 28 28 28 28
13 11 11 10 10 9 8 7 9 13 14 14 14 13 10 11 12 15 16 15 13 13 13 15 17 19 20 19 18 19 19 19 19 19 21 22 24 25 26 26 26 26 27
13 12 11 11 11 11 11 9 8 11 14 14 14 11 10 11 14 16 17 15 14 14 14 15 16 17 18 17 17 18 19 19 19 19 21 23 24 24 25 26 27 28 28
13 14 13 13 14 13 12 11 9 10 11 13 13 13 13 13 15 17 17 16 16 15 15 15 15 16 16 17 17 17 18 18 19 20 21 23 24 25 26 27 28 28 29
13 14 14 14 15 15 14 13 11 11 11 14 15 15 15 16 17 18 18 18 19 18 17 19 17 17 18 19 19 18 19 20 20 22 23 24 26 28 29 30 31 32 33
14 14 15 15 16 17 17 16 15 14 15 17 18 19 20 21 22 21 21 21 22 22 21 22 22 22 22 22 22 22 22 22 23 25 27 28 30 32 34 34 34 35 35
15 15 16 17 17 17 18 18 18 18 18 20 22 23 24 26 27 26 24 24 25 26 27 26 27 27 28 27 27 27 27 26 27 28 30 32 34 35 37 38 39 39 38
17 16 17 17 18 18 19 19 20 20 21 23 25 26 27 28 29 30 29 28 30 30 31 32 32 32 32 32 32 32 31 30 30 30 31 34 36 38 40 41 42 42 41
19 18 17 17 18 19 20 20 21 21 23 25 28 29 30 32 32 34 35 37 39 36 35 36 37 37 36 35 35 35 35 34 33 34 35 37 38 40 41 42 43 44 44
20 21 18 17 18 19 21 22 23 24 26 27 30 33 35 36 38 40 40 42 42 39 39 40 41 41 41 39 39 39 39 38 38 39 40 41 41 42 42 42 43 44 44
21 22 20 18 18 20 23 25 26 27 29 33 36 37 38 40 42 43 44 43 41 40 42 41 41 43 43 43 43 43 43 44 43 44 44 44 43 43 43 44 45 45 45
21 21 21 20 20 22 25 26 28 30 33 36 37 36 36 36 38 39 40 40 41 42 42 42 42 44 46 47 48 48 48 48 48 47 46 46 46 45 45 46 47 48 48
20 20 20 22 24 26 29 31 32 33 33 34 35 35 35 35 36 37 38 40 40 41 41 43 44 45 47 49 51 53 53 54 53 51 48 49 48 48 49 49 49 50 50
19 21 23 26 29 31 34 33 32 31 30 30 30 31 32 33 35 36 37 39 40 41 43 45 47 49 50 51 54 56 57 57 57 53 52 53 52 53 54 54 53 53 52
21 25 28 31 33 34 33 30 27 26 25 26 27 29 31 33 34 36 37 39 42 44 45 47 49 51 52 54 56 57 58 59 58 55 55 55 55 56 58 57 57 55 53
25 29 32 33 31 30 28 26 25 26 26 27 29 30 32 33 35 36 37 38 40 42 43 45 46 48 49 52 55 57 58 58 58 58 59 60 59 59 58 57 58 58 56
31 34 34 31 28 26 25 25 26 27 29 31 32 34 35 37 39 41 42 44 45 47 49 50 52 53 53 55 57 61 62 61 60 62 63 63 63 63 60 58 59 60 59
35 35 33 29 27 26 26 26 27 29 31 34 37 39 42 44 46 47 49 51 53 54 55 56 57 59 60 60 61 64 67 67 66 63 63 64 65 64 61 60 62 62 59
31 30 28 27 28 28 29 31 33 35 37 38 41 43 45 47 49 50 52 54 56 58 59 61 62 63 64 65 66 67 69 71 75 74 68 66 67 65 63 63 63 62 57
26 26 26 27 29 31 33 35 37 38 40 42 43 46 48 50 53 55 57 59 61 63 65 66 68 69 70 71 71 73 74 75 75 77 76 69 66 63 63 64 63 62 57
24 26 27 29 30 32 34 37 39 41 43 45 47 49 52 54 56 58 59 61 62 64 66 67 69 69 70 71 72 72 72 71 66 67 70 69 66 62 64 64 63 61 58

GEFSSE_500_meanwind_006.txt.gz
Wind_Speed
13 14 15 15 14 13 13 12 11 11 10 9 8 8 8 9 9 9 10 10 9 10 11 12 13 14 16 17 18 19 21 23 23 24 25 24 24 25 25 26 27 28 29
13 13 14 13 13 13 13 13 12 12 12 11 10 9 10 10 10 11 12 11 12 12 13 14 13 14 16 17 18 20 22 23 24 25 25 25 25 25 24 25 26 27 27
12 12 12 12 13 13 13 13 13 13 14 14 12 11 11 11 11 13 13 13 14 14 15 15 14 14 16 18 20 22 23 22 21 21 21 21 21 21 21 22 22 22 22
11 11 11 12 13 14 14 13 13 12 14 15 13 13 13 12 11 13 14 14 15 16 16 16 15 15 17 20 22 23 22 20 18 17 17 16 16 16 16 17 18 19 19
10 11 11 12 13 14 14 13 13 12 13 15 14 14 14 14 13 14 15 16 18 18 17 16 15 15 17 19 21 21 21 19 17 15 15 14 14 15 15 15 16 17 17
11 11 12 12 13 13 13 13 12 12 14 16 15 15 16 16 15 15 16 18 19 19 18 17 16 16 16 17 17 18 18 18 17 15 14 13 14 15 15 15 16 18 19
12 12 12 12 13 14 14 14 13 12 15 17 18 18 18 17 16 15 17 18 19 19 19 18 18 18 17 17 16 16 16 17 16 15 14 14 14 15 17 18 19 21 22
12 13 13 13 14 14 15 15 15 14 14 17 19 20 20 19 18 17 17 19 19 18 18 19 21 21 20 20 19 19 19 18 18 18 18 18 18 19 19 20 22 24 25
13 13 13 13 14 15 16 17 17 17 17 17 18 20 20 21 20 19 19 20 20 19 20 22 23 24 24 25 25 24 23 23 22 22 22 22 23 23 23 23 24 26 27
13 13 13 14 14 15 17 18 19 20 19 19 19 19 20 21 20 20 21 23 24 24 25 26 27 27 28 29 31 31 31 30 30 30 29 28 28 28 28 28 29 30 31
13 14 14 14 15 16 18 19 21 23 23 23 23 22 22 23 23 24 26 28 30 31 31 31 31 31 32 33 35 37 37 37 36 36 36 35 34 33 34 34 34 35 36
14 15 14 15 16 17 18 20 23 25 26 26 26 26 25 26 27 29 30 32 34 34 35 36 36 37 38 40 41 41 41 42 42 42 42 41 39 39 39 39 39 40 41
16 16 15 16 17 18 19 20 22 24 26 27 27 28 28 29 31 32 34 35 37 38 39 41 42 43 45 46 46 45 44 44 44 45 46 46 45 45 45 45 45 46 46
18 18 17 18 18 19 20 21 21 22 24 26 27 28 29 31 33 35 37 39 41 43 45 46 46 47 48 48 47 46 45 45 45 45 47 49 50 51 51 50 50 51 50
20 21 21 21 19 19 20 20 21 21 23 25 27 29 31 34 37 39 42 44 45 45 45 45 45 46 46 46 46 46 46 45 45 46 46 48 49 51 53 53 54 54 54
23 23 22 21 20 19 19 20 21 23 25 27 29 31 35 38 41 44 45 45 44 42 41 40 41 41 43 44 45 45 46 47 48 49 49 49 50 51 52 54 55 56 56
26 25 23 22 21 20 20 21 23 25 28 30 33 35 39 42 44 44 42 41 40 40 39 39 39 40 41 43 44 45 46 47 48 48 49 49 50 52 53 54 55 55 56
28 27 25 22 22 22 22 24 26 29 32 34 35 36 37 37 37 36 36 36 37 37 37 37 38 39 40 42 43 44 45 46 47 48 49 50 52 53 54 55 56 56 56
29 27 23 22 23 23 25 27 30 33 35 36 35 33 33 33 33 32 32 33 34 34 36 37 39 41 42 44 45 46 47 49 51 52 53 55 56 57 58 59 60 60 60
26 24 23 23 25 26 28 31 33 35 35 35 33 32 31 31 31 31 32 34 35 37 39 41 43 44 46 48 50 50 51 52 53 55 57 59 61 62 63 64 64 64 65
23 22 23 26 28 31 33 34 34 34 33 32 31 29 29 30 32 34 36 37 40 42 44 46 48 50 52 55 56 56 56 57 57 58 59 61 62 63 64 65 65 66 66
22 23 26 29 32 35 36 34 33 31 29 29 30 31 33 34 36 38 41 43 45 47 50 52 54 55 56 57 59 61 60 58 58 59 60 61 62 62 63 63 63 64 64
23 26 29 32 35 35 33 30 28 28 29 31 33 35 37 39 41 44 46 48 50 51 52 54 56 58 59 59 62 64 66 66 66 65 65 65 65 65 66 65 65 65 64
26 29 32 34 33 30 29 29 30 31 32 34 37 39 41 44 46 47 48 50 51 53 55 57 59 60 62 63 65 69 72 75 77 76 74 73 71 70 68 67 66 66 65
30 32 33 33 31 30 30 32 33 35 37 38 40 42 44 45 46 48 50 53 56 58 60 62 63 65 67 70 73 75 78 80 82 84 82 81 81 80 79 76 72 69 66
32 33 33 32 31 32 34 35 37 38 40 41 42 43 45 48 50 53 57 61 64 66 68 70 72 74 76 78 81 82 84 86 88 91 92 91 90 88 88 86 84 79 74

GEFSSE_500_meanwind_012.txt.gz
Wind_Speed
17 19 18 17 16 17 16 16 14 14 15 17 18 16 15 14 15 14 13 12 12 12 12 12 13 14 14 15 16 16 17 18 20 22 23 23 23 23 23 23 23 23 22
18 18 17 15 15 14 15 16 15 16 16 17 19 17 16 15 15 14 13 13 13 14 14 15 15 15 16 17 18 19 19 20 23 24 24 23 22 21 20 19 18 18 17
17 15 14 14 14 13 14 16 16 16 15 16 18 18 17 16 15 14 13 14 15 16 15 16 16 16 16 18 19 19 20 21 23 24 22 21 19 18 17 15 14 14 13
15 13 13 13 13 13 14 15 15 14 14 15 17 18 18 18 17 15 15 16 18 17 16 16 17 17 17 19 20 20 20 20 22 22 20 18 17 16 15 14 13 12 12
13 11 12 12 13 13 13 14 14 13 13 14 16 18 20 20 19 17 16 18 20 19 18 18 18 18 19 20 21 20 20 20 20 20 19 18 16 16 15 15 13 13 13
12 11 11 12 13 14 14 14 15 14 14 14 15 17 19 21 20 20 19 20 20 20 20 19 19 19 20 21 22 22 22 23 22 21 20 19 18 17 18 18 17 17 17
12 11 11 12 13 14 15 15 16 16 16 15 14 16 19 21 22 22 23 23 22 20 19 19 19 19 20 21 22 23 25 26 26 26 25 24 23 23 23 23 23 23 23
12 10 11 12 13 14 15 16 17 18 18 17 16 17 18 20 22 24 25 24 23 21 20 20 20 21 22 23 24 26 27 29 30 30 29 30 30 30 30 30 29 29 29
12 11 11 12 13 14 15 16 17 19 20 20 20 20 20 20 21 22 24 25 24 23 22 23 24 25 27 28 29 30 31 32 34 34 34 35 35 36 36 37 37 36 35
12 11 11 12 13 14 15 16 17 19 20 22 24 24 23 23 23 23 23 25 25 25 26 27 29 31 32 33 34 34 35 37 38 39 40 40 40 40 40 40 41 41 40
13 13 12 11 12 13 15 16 18 20 21 23 25 26 27 26 26 26 26 26 27 28 29 31 33 35 36 37 38 39 40 41 43 44 45 45 44 44 43 42 42 42 42
15 15 14 13 13 13 14 16 17 19 21 22 24 26 27 28 28 28 28 29 30 31 33 35 37 39 40 42 43 44 44 45 46 46 47 47 46 44 43 43 42 42 42
18 18 17 16 15 15 16 16 17 19 20 21 22 23 24 26 27 27 28 29 31 33 35 38 40 42 43 45 45 45 44 44 45 45 46 46 46 45 45 45 44 44 45
20 20 19 18 18 17 18 18 19 20 20 20 20 20 21 23 25 26 28 30 33 35 38 40 42 44 44 44 43 42 41 41 42 44 45 46 46 46 47 47 48 48 49
22 21 21 21 20 19 20 21 21 22 22 21 21 21 22 24 26 29 31 33 36 38 40 41 41 40 39 39 39 38 38 39 40 42 43 43 44 44 45 46 47 48 49
22 22 22 23 22 22 22 23 23 23 23 24 24 25 27 28 30 32 33 35 35 35 35 35 35 34 34 34 35 36 37 38 39 41 42 43 45 46 47 48 49 50 51
21 21 22 23 23 23 24 25 25 25 25 26 27 29 30 32 33 33 33 34 33 33 33 33 33 34 34 35 36 38 40 41 43 45 47 48 49 51 52 53 54 54 55
21 22 22 23 24 25 25 26 27 27 27 28 31 33 35 35 34 33 33 33 33 33 33 34 34 35 37 38 40 41 43 45 47 48 50 52 53 53 54 55 55 56 55
23 24 25 26 26 26 26 26 27 28 29 32 34 36 37 36 34 33 33 33 33 34 35 36 38 39 41 42 43 44 45 47 48 50 52 54 56 57 58 58 59 59 60
26 27 28 28 27 26 26 26 28 29 32 34 36 37 36 35 35 34 34 35 36 37 38 40 41 42 43 45 46 47 48 51 53 55 57 59 61 62 64 65 65 66 67
28 29 29 27 25 24 25 27 29 31 34 36 36 36 36 35 36 36 37 38 39 40 41 42 42 43 46 48 50 52 54 56 59 61 63 65 66 67 69 70 72 74 75
30 29 26 24 24 24 26 28 31 33 35 36 36 36 36 37 38 39 40 41 41 42 42 44 45 47 50 53 57 60 61 62 63 66 68 69 70 72 73 74 76 78 80
29 27 25 23 24 25 27 30 33 34 35 35 35 36 37 39 40 41 41 41 42 43 45 47 50 52 55 58 62 66 70 72 72 71 72 74 75 76 77 78 80 82 85
27 25 25 25 26 28 30 32 34 35 35 35 36 38 39 40 41 41 42 43 45 47 49 52 55 59 62 65 68 71 75 79 82 82 82 83 83 83 84 85 86 89 92
25 26 26 28 29 31 32 33 34 35 36 37 38 39 39 40 41 42 44 46 49 52 55 58 62 65 68 72 75 78 80 82 85 89 90 89 90 91 92 93 95 98 100
26 27 28 29 31 32 33 34 35 36 38 38 39 39 40 42 43 46 48 51 54 57 61 65 68 71 74 77 80 83 86 88 91 93 94 94 95 96 98 99 101 103 105

GEFSSE_500_meanwind_018.txt.gz
Wind_Speed
21 22 22 22 22 22 21 20 19 17 17 18 18 18 18 18 18 19 19 18 17 17 17 16 15 15 14 14 13 13 13 14 15 15 15 16 18 18 19 18 18 17 17
22 22 21 22 22 21 20 19 17 17 16 17 18 19 18 19 19 18 18 17 16 17 18 19 18 17 16 16 15 14 14 14 15 15 15 15 16 16 16 15 14 13 12
22 22 21 20 19 19 18 17 16 16 16 16 16 17 17 18 18 18 18 16 15 16 18 19 19 19 18 18 17 16 16 15 16 16 16 16 16 16 16 15 14 13 11
23 22 21 18 17 16 16 15 15 15 14 13 13 14 15 16 17 18 18 17 16 16 17 19 20 20 20 20 20 18 17 16 16 17 17 18 18 18 18 17 17 15 14
22 21 19 16 14 14 14 14 14 14 14 12 11 12 13 15 16 18 19 19 18 18 19 19 20 21 22 22 22 21 19 18 17 18 19 20 20 21 21 20 20 19 19
22 19 17 14 13 13 14 14 14 14 14 14 12 12 12 13 15 18 19 20 20 21 22 22 21 21 21 22 22 21 21 20 19 20 21 22 24 24 25 25 24 24 24
20 17 15 12 12 13 14 13 14 15 15 15 15 14 14 14 15 17 19 20 21 23 24 24 23 22 22 22 22 22 22 23 22 23 25 26 28 29 29 29 29 29 29
19 16 14 12 13 14 14 13 14 15 15 16 16 17 17 17 17 18 18 19 20 21 22 22 22 22 22 23 24 25 26 26 27 27 29 30 32 33 34 34 33 33 34
19 16 14 13 13 14 14 14 14 15 16 17 17 18 19 20 21 21 21 21 21 21 21 22 23 24 25 26 28 29 30 31 32 33 34 35 37 38 39 39 39 39 39
20 17 15 15 15 15 14 14 14 15 16 17 18 19 19 20 22 23 24 25 25 25 25 26 27 27 29 30 32 33 35 36 37 38 40 41 41 42 42 43 43 43 43
21 19 17 16 16 16 15 14 14 15 15 16 18 19 19 20 21 22 24 25 27 28 28 29 30 31 32 34 35 36 38 40 41 42 43 44 44 43 42 42 43 44 44
21 20 19 18 18 17 16 15 16 16 17 17 17 18 19 20 21 21 23 24 26 27 29 30 31 33 35 36 38 39 41 43 44 44 43 43 42 41 40 40 40 41 42
22 21 21 20 19 19 18 17 18 19 20 20 20 19 20 21 21 22 23 24 26 27 29 31 33 35 37 39 40 42 43 43 42 40 39 38 37 37 36 36 36 37 38
23 22 22 21 21 21 21 21 21 22 23 23 23 23 23 23 23 24 25 26 28 30 32 34 36 38 39 41 41 40 38 36 35 34 33 33 34 34 35 35 36 37 38
23 22 22 22 22 23 23 23 24 25 26 26 27 27 26 26 27 27 28 30 31 33 34 35 36 37 37 37 36 35 34 33 33 33 33 33 34 35 37 38 38 39 40
23 22 22 23 24 24 25 25 26 28 29 30 30 30 29 29 30 31 32 33 34 35 35 35 35 35 35 34 34 33 33 33 34 35 35 36 36 36 37 38 40 42 44
24 22 22 24 24 25 25 26 27 28 30 31 31 31 31 31 32 33 34 35 36 35 35 34 34 33 32 32 32 33 34 35 36 36 37 37 38 39 40 42 44 46 49
24 22 23 24 24 25 26 27 28 30 32 32 32 32 31 32 33 35 36 37 36 35 34 33 32 32 32 33 33 35 35 36 37 38 39 41 42 44 46 48 50 52 54
25 23 23 24 25 26 27 29 31 33 33 33 32 31 31 33 35 37 38 37 36 35 34 33 33 34 35 35 36 37 38 39 41 42 44 46 49 51 53 55 57 59 61
27 25 24 25 26 27 29 31 33 34 33 32 31 31 33 35 37 39 39 38 36 35 35 35 36 37 38 38 39 40 41 43 46 48 50 52 55 57 59 61 63 65 67
28 27 26 27 28 30 32 34 35 34 33 32 32 33 35 37 39 40 39 37 37 37 37 38 38 40 41 43 44 45 47 49 52 54 56 59 61 63 65 67 69 71 72
29 28 28 28 30 32 34 35 34 33 32 32 33 35 38 40 40 40 39 39 39 39 40 40 42 43 45 48 50 51 53 54 56 59 62 64 66 67 69 71 72 74 75
30 29 29 30 32 33 34 34 33 33 33 34 36 38 40 41 41 40 40 40 41 42 43 44 45 47 49 52 56 59 62 64 64 64 65 67 69 71 73 74 76 77 79
29 28 29 30 32 33 33 33 33 33 35 37 38 40 41 42 42 41 41 42 42 43 44 46 49 52 55 58 61 65 68 71 73 72 71 72 73 75 76 78 80 82 84
27 28 29 30 31 32 32 33 34 35 37 39 40 41 42 42 41 41 42 42 43 44 47 50 54 57 61 64 67 69 71 73 75 77 77 77 78 79 82 84 87 89 91
27 28 29 30 31 32 34 35 37 38 39 40 41 41 41 41 41 41 42 43 45 48 52 55 59 62 65 68 71 73 75 77 78 80 81 81 82 84 87 90 93 96 98

GEFSSE_500_meanwind_024.txt.gz
Wind_Speed
17 16 17 17 17 17 17 16 15 14 13 13 13 14 14 14 14 15 16 15 15 16 17 18 19 19 18 18 18 19 20 20 19 19 18 16 16 15 13 13 13 13 13
18 18 18 17 17 17 17 16 15 14 13 12 12 12 13 15 15 16 17 17 16 17 17 18 19 19 19 19 20 21 22 23 22 21 20 19 18 17 16 15 14 13 12
19 18 18 18 18 17 16 16 15 14 13 12 11 11 11 13 15 17 18 18 18 18 18 18 17 18 19 20 21 22 24 24 23 22 22 21 21 20 19 18 17 16 14
19 19 19 19 18 17 16 15 14 14 13 12 12 11 11 12 14 17 19 20 19 19 19 19 18 19 19 20 22 23 25 26 25 25 24 24 24 23 22 21 20 20 19
20 19 19 20 19 17 16 14 13 13 13 13 13 12 12 13 14 16 18 20 20 21 21 21 21 21 22 22 22 24 26 27 28 28 27 27 26 25 25 24 24 24 24
21 20 20 21 20 18 16 14 13 13 13 13 13 13 14 14 15 15 16 18 20 21 22 23 24 25 25 25 25 26 27 28 29 29 28 28 27 28 28 29 28 28 28
21 21 21 21 21 19 17 14 13 13 13 14 15 15 15 16 16 17 18 18 19 20 22 24 25 26 27 28 28 29 29 29 29 29 28 29 29 30 31 32 33 33 33
22 21 22 22 21 20 18 15 13 14 14 14 15 16 17 18 19 19 20 21 21 22 22 23 24 25 26 27 29 29 30 30 30 30 31 31 32 33 34 35 36 37 38
21 21 22 22 22 20 18 16 15 14 14 14 15 16 17 18 20 20 22 23 24 25 26 27 27 28 28 29 29 30 31 32 32 33 34 35 36 37 38 39 40 41 42
21 21 22 23 22 21 19 18 16 15 14 14 15 16 17 18 19 19 20 21 22 24 25 26 28 29 30 31 31 32 33 34 35 36 37 38 39 40 41 42 43 43 44
21 22 23 24 24 22 21 20 18 16 15 15 15 16 16 17 18 18 19 20 21 22 23 24 26 27 29 30 31 33 34 35 37 38 39 41 42 43 43 44 43 42 41
22 22 23 25 24 23 23 22 20 18 17 16 17 17 18 18 19 19 20 21 22 22 23 24 25 27 28 30 32 33 35 36 38 39 40 41 42 42 41 40 38 36 35
24 23 23 24 25 25 25 24 22 21 20 20 21 21 22 22 23 23 23 24 25 25 26 27 29 30 31 33 34 35 36 37 38 38 39 39 38 37 36 35 34 33 33
26 24 23 24 26 26 26 25 24 23 23 23 24 25 26 27 27 28 27 27 27 28 29 30 32 33 34 35 36 37 37 37 37 37 36 36 36 35 36 36 36 36 36
27 26 24 25 26 27 27 27 25 25 25 25 25 26 28 29 30 31 31 31 31 31 31 32 34 35 36 37 37 37 37 37 37 36 36 36 36 37 38 39 40 41 41
27 26 26 26 26 26 27 27 26 26 26 26 25 26 28 30 31 33 33 33 33 33 33 34 35 36 37 38 38 37 37 37 38 38 38 38 39 40 41 42 42 43 44
27 26 27 27 27 26 26 25 25 26 26 25 25 27 29 30 31 32 32 32 32 33 34 36 37 38 38 39 38 38 38 38 39 39 40 41 42 43 44 45 46 47 48
27 26 27 27 27 25 24 24 24 25 25 24 25 27 29 30 31 30 30 30 31 33 34 36 38 39 39 39 39 39 39 39 40 41 42 43 44 46 47 48 50 51 53
27 26 27 27 26 24 24 24 24 24 25 25 27 29 30 30 30 30 30 31 33 35 36 38 39 40 40 39 39 39 40 41 42 43 44 46 48 49 51 53 55 57 59
28 27 26 26 25 25 25 25 25 25 26 27 29 31 31 31 30 31 31 33 35 37 39 41 42 41 41 40 40 40 41 42 43 45 47 49 51 53 56 58 61 63 65
28 28 27 26 26 26 26 26 26 27 28 29 31 32 31 31 32 33 34 37 39 40 42 43 43 43 43 42 42 41 43 44 46 48 51 54 57 60 62 64 67 69 70
29 28 27 27 27 27 27 27 28 29 30 31 32 31 31 32 34 36 38 40 42 43 44 44 44 44 44 44 44 44 45 47 50 53 57 60 63 65 67 69 71 73 74
29 29 28 27 28 28 28 29 29 30 30 31 31 31 33 35 37 39 41 43 44 45 45 45 44 44 45 47 49 51 53 54 55 56 60 63 66 68 70 72 73 75 76
29 29 28 28 28 29 29 30 30 31 32 32 32 33 36 38 40 42 43 44 44 44 45 45 46 47 48 51 54 57 61 64 66 65 64 65 67 69 71 73 74 76 78
29 29 28 28 28 29 30 30 31 31 32 32 34 36 38 41 42 43 44 44 44 44 45 46 48 51 53 56 59 62 65 68 72 74 73 73 72 71 72 73 75 78 80
28 28 28 28 28 29 30 31 31 32 33 35 36 38 40 42 43 43 44 44 44 45 47 49 52 55 58 61 64 67 69 71 73 75 77 77 77 76 76 76 79 82 86

GEFSSE_500_meanwind_030.txt.gz
Wind_Speed
17 16 15 15 14 14 15 15 16 15 14 13 12 11 10 10 11 12 13 14 15 17 17 18 19 20 21 22 23 23 23 22 22 23 23 23 23 22 22 22 21 20 19
18 17 17 16 16 16 16 16 16 15 14 14 13 11 11 10 11 12 13 15 16 18 19 20 20 21 22 23 24 24 24 24 24 25 25 26 25 24 24 24 23 22 21
19 18 18 18 17 17 17 16 16 15 14 14 13 12 11 11 11 12 13 15 17 18 19 21 21 22 22 22 23 23 23 24 24 25 27 28 28 27 27 26 26 24 23
20 19 19 19 19 18 18 17 17 16 15 13 12 12 11 11 12 12 14 15 16 18 20 21 22 22 22 22 23 23 23 24 25 26 27 29 29 30 30 29 28 27 27
21 21 21 20 20 19 18 18 17 16 15 14 13 12 12 12 12 13 14 15 16 17 19 21 22 23 23 24 25 25 25 26 27 28 29 29 30 31 31 31 30 30 29
22 21 22 22 22 21 19 18 18 17 15 14 13 13 13 13 13 14 15 16 17 17 18 18 20 21 22 24 26 26 27 28 29 30 31 31 31 31 31 31 31 31 31
23 22 22 23 23 22 20 19 18 17 16 15 14 14 14 14 14 15 16 17 18 19 19 20 21 22 23 24 26 27 28 29 30 31 31 31 31 32 32 33 33 33 33
23 22 23 23 23 21 20 19 19 18 17 16 15 15 15 15 14 14 16 18 19 20 21 22 24 25 27 28 28 29 30 31 32 33 33 33 33 33 34 35 36 36 37
22 22 22 22 22 21 20 20 20 19 18 17 16 16 15 15 14 14 16 17 18 19 20 22 23 24 26 27 29 30 32 33 34 35 35 36 36 36 37 38 38 39 40
21 21 21 21 21 21 20 20 21 20 19 18 17 17 16 15 14 14 15 16 17 18 20 21 22 24 25 26 27 28 29 30 32 33 34 35 36 38 39 40 41 41 42
21 21 21 20 21 21 20 21 22 21 21 20 19 18 17 16 16 16 17 18 19 20 21 22 23 25 26 26 27 28 29 30 32 33 34 35 37 38 40 41 42 43 44
23 22 22 21 21 21 21 21 22 22 22 22 21 20 19 18 18 19 20 21 23 24 25 26 27 28 29 29 30 30 31 32 34 35 36 37 38 39 40 41 42 42 42
25 24 23 23 23 22 22 22 22 23 24 24 23 22 21 20 21 22 24 25 27 29 30 31 31 32 32 33 33 34 34 34 35 35 36 37 38 39 40 40 41 41 40
28 26 25 25 25 25 24 22 22 24 24 25 25 24 23 22 23 25 27 28 30 31 32 33 33 33 34 34 35 36 36 37 37 38 39 39 40 40 40 40 40 40 40
30 28 28 27 27 27 25 24 23 23 24 25 26 25 24 24 25 27 28 29 30 31 32 32 32 32 32 33 35 36 37 38 39 40 41 41 41 41 40 40 41 41 41
31 30 30 29 29 28 26 24 23 23 24 25 26 26 26 26 27 28 28 29 29 30 31 31 31 31 32 33 35 36 37 39 40 41 42 42 42 42 42 42 42 42 42
31 31 31 31 31 29 27 25 23 23 24 25 26 26 26 26 27 27 28 29 30 31 31 31 32 32 33 35 37 38 40 41 42 43 43 43 43 44 43 44 44 44 45
31 31 32 32 31 30 28 26 24 23 24 25 26 27 27 27 28 28 29 30 32 32 32 32 32 33 35 37 39 41 42 44 45 45 45 45 45 45 45 46 46 47 47
33 32 32 32 32 31 29 27 25 25 26 26 27 27 27 28 29 29 31 32 33 33 32 33 34 35 37 39 41 43 45 46 46 46 46 46 46 46 47 48 49 50 52
35 32 32 32 32 31 29 27 26 27 27 27 27 28 28 29 30 31 33 34 34 34 34 35 36 38 40 41 43 45 45 46 46 46 46 47 48 49 50 52 53 55 57
36 34 33 32 32 31 29 28 28 29 29 28 28 29 30 31 32 33 34 35 35 35 37 38 40 41 42 43 44 45 46 46 46 47 48 49 51 53 55 57 59 61 62
37 35 33 33 33 31 29 28 28 29 29 29 29 30 31 32 33 34 35 36 37 38 39 41 42 44 45 45 45 45 45 45 47 48 50 52 55 57 60 62 64 66 67
38 36 35 34 33 32 30 28 28 29 30 30 30 31 32 33 34 36 37 38 39 40 42 43 44 46 47 48 48 48 48 47 47 48 51 55 58 61 63 65 67 68 69
37 37 36 35 34 32 30 28 28 29 30 31 31 32 33 35 36 38 39 40 41 43 44 45 46 48 48 49 50 51 53 54 54 53 53 57 60 62 65 66 67 68 69
38 37 36 35 34 32 30 29 28 29 29 31 32 33 34 36 38 40 41 42 44 45 46 47 49 49 50 51 52 54 56 58 61 62 60 61 62 64 65 66 67 68 70
38 37 36 35 34 32 31 29 29 29 30 31 32 34 35 37 39 40 42 44 45 46 47 49 50 51 52 53 55 57 59 61 64 66 66 66 66 66 67 67 68 71 74